Tracking 19280 objects as of 15-Nov-2018
HD Live streaming from Space Station
objects crossing your sky now

EKRAN 6

Track EKRAN 6 now!
EKRAN 6 is classified as:


NORAD ID: 12120
Int'l Code: 1980-104A
Perigee: 35,754.2 km
Apogee: 35,833.9 km
Inclination: 12.4 °
Period: 1,436.1 minutes
Semi major axis: 42165 km
RCS: 6.3095 m2 (large)
Launch date: December 26, 1980
Source: Commonwealth of Independent States (former USSR) (CIS)
Launch site: TYURATAM MISSILE AND SPACE COMPLEX (TTMTR)
aabbcc
Your satellite tracking list
Your tracking list is empty




NASA's NSSDC Master Catalog

Two Line Element Set (TLE):
1 12120U 80104A   18318.46430083 -.00000300 +00000-0 +00000-0 0  9992
2 12120 012.3565 320.5597 0009458 343.9788 014.1761 01.00270667099613
Source of the keplerian elements: AFSPC